QPF
0.05 0.05 0.05 0.05 0.06 0.07 0.09 0.11 0.10 0.07 0.05 0.05 0.04 0.03 0.04 0.03 0.02 0.01 0.02 0.02 0.02 0.03 0.03 0.04 0.05 0.05 0.05 0.06 0.07 0.07 0.08 0.11 0.14 0.16 0.16 0.17 0.17 0.18
0.04 0.04 0.05 0.05 0.06 0.06 0.07 0.09 0.10 0.09 0.06 0.04 0.05 0.05 0.04 0.03 0.03 0.03 0.03 0.03 0.02 0.02 0.03 0.04 0.05 0.06 0.07 0.07 0.07 0.08 0.10 0.11 0.13 0.13 0.15 0.16 0.17 0.17
0.03 0.03 0.04 0.05 0.04 0.05 0.06 0.06 0.07 0.08 0.07 0.05 0.06 0.06 0.06 0.05 0.05 0.06 0.05 0.05 0.04 0.03 0.03 0.03 0.04 0.06 0.08 0.08 0.07 0.07 0.07 0.08 0.10 0.12 0.13 0.13 0.13 0.14
0.04 0.03 0.03 0.03 0.03 0.03 0.04 0.04 0.05 0.06 0.07 0.07 0.06 0.06 0.06 0.06 0.06 0.06 0.05 0.04 0.05 0.04 0.04 0.04 0.04 0.05 0.07 0.07 0.07 0.07 0.07 0.08 0.10 0.11 0.12 0.13 0.13 0.13
0.03 0.03 0.03 0.03 0.02 0.03 0.03 0.04 0.04 0.04 0.06 0.06 0.05 0.05 0.04 0.05 0.06 0.08 0.09 0.10 0.09 0.08 0.07 0.05 0.04 0.04 0.05 0.06 0.06 0.08 0.09 0.10 0.11 0.11 0.11 0.12 0.12 0.12
0.02 0.02 0.02 0.02 0.03 0.03 0.03 0.04 0.04 0.04 0.05 0.06 0.06 0.06 0.05 0.06 0.08 0.09 0.08 0.07 0.06 0.05 0.05 0.04 0.03 0.03 0.03 0.03 0.04 0.04 0.04 0.05 0.06 0.09 0.10 0.11 0.11 0.11
0.02 0.02 0.02 0.02 0.02 0.02 0.02 0.03 0.04 0.05 0.05 0.06 0.06 0.05 0.05 0.05 0.05 0.06 0.05 0.06 0.04 0.04 0.05 0.04 0.04 0.04 0.03 0.04 0.03 0.03 0.02 0.02 0.03 0.05 0.06 0.06 0.07 0.07
0.02 0.02 0.02 0.01 0.01 0.01 0.01 0.01 0.02 0.04 0.05 0.06 0.06 0.06 0.06 0.06 0.06 0.05 0.05 0.06 0.05 0.04 0.04 0.04 0.04 0.05 0.04 0.03 0.03 0.02 0.01 0.01 0.02 0.03 0.03 0.03 0.03 0.03
0.02 0.01 0.01 0.01 0.01 0.01 0.01 0.01 0.01 0.01 0.02 0.03 0.04 0.05 0.06 0.08 0.09 0.10 0.10 0.10 0.10 0.08 0.08 0.08 0.07 0.07 0.07 0.06 0.05 0.03 0.02 0.02 0.02 0.03 0.04 0.04 0.04 0.04
0.01 0.01 0.01 0.01 0.01 0.01 0.01 0.01 0.01 0.01 0.01 0.01 0.02 0.02 0.03 0.04 0.06 0.07 0.09 0.10 0.10 0.09 0.08 0.08 0.08 0.07 0.06 0.05 0.05 0.04 0.03 0.03 0.03 0.03 0.03 0.03 0.03 0.03
0.02 0.01 0.01 0.01 0.01 0.01 0.01 0.01 0.01 0.01 0.01 0.01 0.01 0.02 0.03 0.04 0.04 0.04 0.04 0.04 0.04 0.04 0.05 0.05 0.05 0.05 0.05 0.05 0.05 0.06 0.06 0.06 0.05 0.04 0.04 0.04 0.04 0.05
0.02 0.02 0.02 0.02 0.01 0.01 0.01 0.01 0.01 0.01 0.01 0.01 0.01 0.02 0.03 0.03 0.04 0.03 0.03 0.03 0.03 0.03 0.04 0.05 0.07 0.09 0.10 0.12 0.12 0.11 0.10 0.09 0.08 0.07 0.05 0.05 0.05 0.05
0.02 0.01 0.01 0.02 0.01 0.01 0.01 0.01 0.01 0.01 0.01 0.01 0.01 0.02 0.02 0.03 0.03 0.03 0.03 0.03 0.03 0.03 0.02 0.03 0.04 0.05 0.06 0.07 0.08 0.08 0.08 0.07 0.06 0.07 0.08 0.08 0.08 0.07
0.03 0.01 0.01 0.01 0.01 0.01 0.01 0.01 0.01 0.01 0.01 0.02 0.03 0.02 0.02 0.02 0.02 0.02 0.02 0.03 0.03 0.03 0.03 0.03 0.03 0.03 0.03 0.04 0.05 0.06 0.07 0.07 0.06 0.06 0.07 0.09 0.09 0.09
0.03 0.02 0.01 0.01 0.01 0.01 0.01 0.01 0.01 0.01 0.02 0.02 0.03 0.03 0.03 0.02 0.02 0.01 0.02 0.02 0.02 0.03 0.03 0.03 0.03 0.03 0.03 0.03 0.03 0.03 0.04 0.04 0.04 0.05 0.07 0.10 0.12 0.12
0.03 0.02 0.02 0.02 0.02 0.02 0.02 0.02 0.03 0.03 0.03 0.02 0.02 0.02 0.02 0.01 0.01 0.02 0.02 0.02 0.02 0.01 0.01 0.02 0.02 0.02 0.02 0.02 0.03 0.03 0.03 0.03 0.03 0.04 0.05 0.07 0.08 0.09
0.02 0.01 0.01 0.01 0.01 0.02 0.02 0.03 0.03 0.02 0.02 0.02 0.01 0.01 0.01 0.01 0.01 0.01 0.01 0.01 0.02 0.02 0.02 0.02 0.03 0.03 0.03 0.03 0.03 0.03 0.03 0.04 0.04 0.06 0.07 0.07 0.07 0.08
0.01 0.01 0.01 0.01 0.01 0.01 0.01 0.01 0.00 0.00 0.01 0.01 0.01 0.01 0.01 0.01 0.01 0.01 0.01 0.02 0.02 0.03 0.03 0.03 0.04 0.05 0.05 0.04 0.05 0.05 0.06 0.07 0.07 0.08 0.08 0.08 0.07 0.06
0.01 0.01 0.01 0.01 0.01 0.00 0.01 0.01 0.01 0.01 0.01 0.01 0.01 0.01 0.01 0.01 0.01 0.01 0.01 0.02 0.03 0.03 0.04 0.05 0.05 0.06 0.06 0.05 0.05 0.05 0.06 0.06 0.06 0.06 0.06 0.06 0.05 0.04
0.01 0.01 0.01 0.00 0.00 0.00 0.00 0.01 0.01 0.01 0.01 0.01 0.01 0.01 0.01 0.01 0.01 0.01 0.01 0.01 0.02 0.03 0.03 0.04 0.04 0.04 0.04 0.05 0.05 0.05 0.05 0.05 0.06 0.06 0.06 0.07 0.06 0.05
0.01 0.01 0.01 0.00 0.00 0.01 0.01 0.01 0.01 0.01 0.01 0.01 0.01 0.01 0.01 0.01 0.01 0.01 0.01 0.01 0.01 0.01 0.02 0.02 0.02 0.02 0.03 0.04 0.04 0.03 0.04 0.04 0.04 0.05 0.07 0.08 0.07 0.06
0.01 0.01 0.01 0.01 0.01 0.01 0.01 0.02 0.01 0.01 0.01 0.01 0.01 0.02 0.02 0.03 0.03 0.03 0.02 0.02 0.01 0.01 0.02 0.02 0.02 0.02 0.02 0.03 0.04 0.04 0.04 0.04 0.04 0.04 0.04 0.05 0.05 0.06
0.02 0.02 0.02 0.03 0.03 0.03 0.03 0.02 0.02 0.02 0.02 0.02 0.02 0.02 0.02 0.02 0.03 0.03 0.03 0.03 0.03 0.03 0.03 0.03 0.02 0.02 0.02 0.03 0.03 0.03 0.03 0.03 0.03 0.03 0.04 0.04 0.04 0.04
MSLP
1015.02 1015.13 1015.29 1015.48 1015.65 1015.75 1015.75 1015.63 1015.38 1015.03 1014.61 1014.19 1013.80 1013.51 1013.34 1013.29 1013.37 1013.54 1013.76 1013.99 1014.20 1014.35 1014.44 1014.46 1014.43 1014.36 1014.28 1014.21 1014.15 1014.12 1014.10 1014.11 1014.11 1014.12 1014.12 1014.11 1014.07 1014.01
1014.37 1014.47 1014.64 1014.84 1015.05 1015.21 1015.28 1015.25 1015.09 1014.83 1014.50 1014.15 1013.82 1013.56 1013.39 1013.33 1013.37 1013.49 1013.66 1013.84 1014.00 1014.11 1014.18 1014.19 1014.17 1014.12 1014.07 1014.02 1013.99 1013.97 1013.98 1013.99 1014.01 1014.02 1014.02 1014.00 1013.97 1013.90
1013.78 1013.85 1014.00 1014.20 1014.42 1014.61 1014.73 1014.76 1014.69 1014.52 1014.28 1014.00 1013.74 1013.51 1013.36 1013.30 1013.31 1013.38 1013.49 1013.62 1013.73 1013.81 1013.86 1013.88 1013.88 1013.86 1013.86 1013.86 1013.88 1013.91 1013.94 1013.98 1014.01 1014.02 1014.02 1014.00 1013.96 1013.89
1013.29 1013.33 1013.45 1013.62 1013.82 1014.01 1014.16 1014.23 1014.22 1014.13 1013.97 1013.78 1013.58 1013.41 1013.28 1013.22 1013.21 1013.24 1013.30 1013.37 1013.44 1013.50 1013.54 1013.57 1013.59 1013.63 1013.68 1013.74 1013.82 1013.90 1013.98 1014.04 1014.08 1014.10 1014.09 1014.06 1014.00 1013.92
1012.90 1012.92 1013.00 1013.14 1013.30 1013.48 1013.62 1013.72 1013.75 1013.72 1013.63 1013.51 1013.39 1013.27 1013.18 1013.13 1013.11 1013.12 1013.14 1013.17 1013.20 1013.23 1013.26 1013.30 1013.36 1013.45 1013.55 1013.68 1013.81 1013.94 1014.05 1014.14 1014.19 1014.20 1014.18 1014.13 1014.05 1013.94
1012.59 1012.58 1012.63 1012.72 1012.85 1012.99 1013.12 1013.22 1013.28 1013.30 1013.28 1013.24 1013.18 1013.13 1013.09 1013.06 1013.05 1013.04 1013.04 1013.04 1013.04 1013.05 1013.08 1013.13 1013.21 1013.33 1013.48 1013.65 1013.83 1013.99 1014.13 1014.23 1014.28 1014.28 1014.24 1014.16 1014.05 1013.91
1012.27 1012.25 1012.27 1012.33 1012.43 1012.54 1012.65 1012.75 1012.83 1012.89 1012.93 1012.96 1012.97 1012.99 1013.00 1013.02 1013.03 1013.02 1013.01 1013.00 1012.98 1012.97 1012.99 1013.04 1013.13 1013.26 1013.44 1013.63 1013.83 1014.02 1014.17 1014.26 1014.30 1014.29 1014.22 1014.11 1013.97 1013.80
1011.87 1011.85 1011.87 1011.91 1011.98 1012.07 1012.18 1012.28 1012.38 1012.48 1012.58 1012.67 1012.76 1012.84 1012.92 1012.98 1013.02 1013.04 1013.04 1013.01 1012.98 1012.96 1012.97 1013.01 1013.10 1013.23 1013.41 1013.60 1013.80 1013.99 1014.13 1014.21 1014.24 1014.20 1014.11 1013.98 1013.81 1013.61
1011.36 1011.37 1011.39 1011.44 1011.51 1011.60 1011.70 1011.82 1011.94 1012.08 1012.22 1012.37 1012.53 1012.68 1012.81 1012.93 1013.01 1013.05 1013.07 1013.05 1013.02 1012.99 1012.98 1013.01 1013.08 1013.20 1013.35 1013.53 1013.71 1013.87 1013.99 1014.05 1014.06 1014.00 1013.90 1013.74 1013.56 1013.35
1010.79 1010.83 1010.89 1010.96 1011.04 1011.14 1011.26 1011.39 1011.54 1011.70 1011.88 1012.08 1012.28 1012.48 1012.67 1012.83 1012.95 1013.02 1013.06 1013.05 1013.03 1013.00 1012.98 1012.99 1013.04 1013.13 1013.25 1013.40 1013.54 1013.66 1013.75 1013.79 1013.78 1013.71 1013.59 1013.44 1013.25 1013.05
1010.28 1010.36 1010.46 1010.56 1010.67 1010.79 1010.92 1011.06 1011.22 1011.40 1011.60 1011.82 1012.05 1012.28 1012.49 1012.68 1012.83 1012.93 1012.99 1013.00 1012.99 1012.96 1012.94 1012.94 1012.97 1013.03 1013.11 1013.21 1013.31 1013.39 1013.44 1013.45 1013.42 1013.34 1013.23 1013.08 1012.92 1012.73
1009.95 1010.08 1010.22 1010.36 1010.49 1010.63 1010.76 1010.90 1011.06 1011.23 1011.42 1011.64 1011.86 1012.09 1012.31 1012.50 1012.66 1012.77 1012.84 1012.88 1012.88 1012.87 1012.86 1012.85 1012.86 1012.89 1012.94 1013.00 1013.05 1013.08 1013.09 1013.07 1013.02 1012.94 1012.84 1012.72 1012.58 1012.43
1009.90 1010.08 1010.25 1010.41 1010.56 1010.69 1010.82 1010.94 1011.07 1011.22 1011.38 1011.55 1011.74 1011.94 1012.13 1012.31 1012.46 1012.57 1012.66 1012.71 1012.73 1012.74 1012.74 1012.74 1012.74 1012.76 1012.77 1012.78 1012.79 1012.78 1012.75 1012.70 1012.63 1012.55 1012.46 1012.36 1012.27 1012.17
1010.16 1010.35 1010.54 1010.70 1010.85 1010.97 1011.07 1011.16 1011.25 1011.34 1011.44 1011.56 1011.70 1011.84 1011.99 1012.13 1012.26 1012.37 1012.46 1012.52 1012.57 1012.60 1012.62 1012.63 1012.64 1012.64 1012.63 1012.60 1012.56 1012.51 1012.43 1012.35 1012.26 1012.18 1012.10 1012.05 1012.00 1011.96
1010.62 1010.81 1010.98 1011.13 1011.25 1011.34 1011.40 1011.45 1011.49 1011.52 1011.57 1011.62 1011.70 1011.78 1011.88 1011.98 1012.08 1012.18 1012.27 1012.34 1012.41 1012.47 1012.51 1012.54 1012.56 1012.55 1012.52 1012.47 1012.39 1012.28 1012.17 1012.05 1011.94 1011.86 1011.80 1011.77 1011.77 1011.80
1011.09 1011.25 1011.40 1011.51 1011.59 1011.64 1011.66 1011.67 1011.66 1011.65 1011.65 1011.66 1011.68 1011.72 1011.78 1011.85 1011.93 1012.01 1012.10 1012.19 1012.28 1012.37 1012.44 1012.49 1012.51 1012.50 1012.46 1012.37 1012.25 1012.11 1011.96 1011.80 1011.68 1011.58 1011.53 1011.54 1011.58 1011.66
1011.35 1011.46 1011.56 1011.62 1011.66 1011.68 1011.67 1011.65 1011.63 1011.60 1011.59 1011.58 1011.59 1011.61 1011.65 1011.71 1011.78 1011.87 1011.97 1012.07 1012.18 1012.29 1012.38 1012.45 1012.48 1012.47 1012.41 1012.30 1012.15 1011.97 1011.78 1011.60 1011.45 1011.35 1011.31 1011.34 1011.42 1011.55
1011.21 1011.26 1011.29 1011.31 1011.32 1011.32 1011.31 1011.30 1011.30 1011.30 1011.31 1011.33 1011.37 1011.41 1011.47 1011.55 1011.64 1011.74 1011.85 1011.98 1012.10 1012.23 1012.33 1012.41 1012.44 1012.43 1012.36 1012.23 1012.05 1011.84 1011.63 1011.42 1011.26 1011.15 1011.12 1011.17 1011.28 1011.46
1010.62 1010.60 1010.58 1010.57 1010.56 1010.57 1010.59 1010.62 1010.68 1010.75 1010.83 1010.93 1011.03 1011.14 1011.25 1011.37 1011.49 1011.62 1011.75 1011.89 1012.03 1012.16 1012.27 1012.35 1012.38 1012.35 1012.27 1012.13 1011.93 1011.71 1011.48 1011.26 1011.09 1010.99 1010.96 1011.02 1011.15 1011.35
1009.68 1009.60 1009.55 1009.51 1009.51 1009.55 1009.62 1009.74 1009.88 1010.05 1010.24 1010.44 1010.64 1010.83 1011.01 1011.19 1011.36 1011.52 1011.67 1011.82 1011.96 1012.09 1012.19 1012.26 1012.28 1012.24 1012.14 1011.99 1011.79 1011.56 1011.32 1011.11 1010.94 1010.83 1010.81 1010.87 1011.02 1011.22
1008.62 1008.50 1008.43 1008.40 1008.42 1008.51 1008.66 1008.86 1009.11 1009.39 1009.69 1010.00 1010.30 1010.58 1010.84 1011.07 1011.28 1011.46 1011.63 1011.77 1011.90 1012.01 1012.09 1012.13 1012.13 1012.08 1011.97 1011.81 1011.61 1011.39 1011.16 1010.95 1010.78 1010.69 1010.66 1010.72 1010.85 1011.05
1007.73 1007.60 1007.53 1007.53 1007.59 1007.74 1007.95 1008.24 1008.58 1008.95 1009.35 1009.75 1010.13 1010.48 1010.79 1011.06 1011.29 1011.48 1011.63 1011.75 1011.85 1011.92 1011.97 1011.98 1011.95 1011.88 1011.76 1011.60 1011.41 1011.19 1010.98 1010.79 1010.64 1010.54 1010.51 1010.55 1010.66 1010.81
1007.29 1007.18 1007.14 1007.16 1007.27 1007.46 1007.73 1008.07 1008.47 1008.90 1009.35 1009.80 1010.22 1010.60 1010.93 1011.20 1011.42 1011.58 1011.70 1011.78 1011.83 1011.85 1011.84 1011.81 1011.75 1011.65 1011.52 1011.36 1011.18 1010.99 1010.80 1010.62 1010.49 1010.39 1010.35 1010.36 1010.42 1010.52
Thickness
5746 5745 5743 5744 5743 5742 5741 5738 5733 5730 5733 5736 5737 5739 5737 5735 5734 5732 5731 5729 5726 5725 5723 5722 5721 5719 5718 5716 5715 5713 5712 5710 5708 5706 5704 5703 5700 5699
5743 5741 5740 5742 5740 5739 5738 5737 5735 5731 5728 5733 5733 5734 5732 5731 5729 5728 5727 5724 5722 5720 5719 5718 5717 5715 5713 5712 5710 5709 5707 5705 5704 5702 5701 5699 5697 5695
5742 5740 5738 5737 5736 5736 5734 5733 5732 5729 5725 5728 5729 5729 5725 5723 5723 5723 5722 5720 5719 5716 5714 5712 5712 5710 5709 5707 5705 5703 5702 5700 5699 5698 5696 5694 5692 5691
5739 5737 5735 5735 5732 5731 5730 5728 5727 5725 5723 5720 5722 5722 5720 5718 5717 5716 5716 5716 5714 5711 5708 5706 5705 5704 5703 5700 5699 5697 5696 5694 5693 5692 5690 5689 5687 5685
5737 5734 5732 5729 5726 5726 5724 5724 5723 5723 5720 5718 5717 5717 5715 5714 5711 5711 5711 5708 5708 5706 5702 5700 5698 5697 5695 5693 5691 5690 5689 5688 5687 5685 5684 5682 5681 5679
5734 5731 5729 5726 5723 5720 5719 5717 5716 5715 5715 5713 5712 5711 5709 5708 5705 5704 5703 5702 5701 5701 5698 5695 5692 5691 5689 5687 5685 5683 5682 5680 5679 5678 5677 5675 5674 5672
5730 5728 5725 5720 5717 5715 5715 5713 5711 5710 5709 5708 5705 5704 5701 5698 5697 5697 5696 5695 5694 5693 5692 5691 5689 5687 5684 5680 5678 5675 5674 5673 5671 5670 5669 5668 5666 5665
5725 5723 5720 5716 5712 5708 5705 5703 5702 5702 5702 5700 5697 5694 5692 5691 5690 5690 5689 5687 5685 5685 5684 5684 5683 5681 5678 5675 5670 5668 5665 5664 5663 5662 5660 5659 5658 5656
5720 5717 5716 5714 5708 5706 5702 5698 5696 5693 5691 5692 5690 5688 5686 5685 5683 5682 5680 5678 5677 5677 5675 5674 5674 5672 5670 5666 5662 5660 5657 5655 5654 5652 5651 5650 5648 5647
5715 5711 5708 5705 5703 5699 5698 5696 5693 5690 5687 5686 5684 5682 5680 5678 5676 5675 5673 5672 5670 5669 5667 5666 5665 5663 5663 5660 5655 5652 5650 5647 5645 5644 5642 5640 5639 5638
5709 5705 5701 5697 5690 5688 5690 5689 5686 5684 5680 5677 5674 5672 5670 5669 5668 5669 5667 5666 5664 5662 5659 5658 5657 5656 5655 5653 5649 5644 5642 5640 5637 5635 5633 5632 5630 5629
5702 5697 5691 5687 5682 5679 5682 5681 5678 5676 5675 5672 5669 5666 5665 5663 5660 5660 5660 5659 5657 5655 5652 5648 5649 5647 5646 5646 5642 5638 5635 5632 5629 5627 5625 5623 5621 5621
5696 5692 5686 5677 5674 5672 5671 5672 5669 5667 5667 5666 5664 5662 5660 5657 5655 5652 5651 5649 5648 5646 5644 5640 5640 5638 5637 5636 5635 5633 5630 5626 5622 5619 5616 5614 5612 5610
5687 5684 5677 5669 5666 5663 5663 5660 5658 5657 5661 5659 5656 5654 5652 5649 5647 5644 5641 5639 5637 5636 5633 5631 5630 5629 5628 5628 5626 5625 5622 5619 5616 5613 5609 5605 5603 5600
5677 5670 5665 5660 5658 5657 5654 5651 5650 5652 5651 5649 5647 5644 5642 5639 5637 5634 5632 5630 5628 5626 5624 5621 5620 5620 5619 5618 5617 5615 5612 5610 5607 5604 5601 5598 5595 5592
5665 5660 5654 5651 5650 5649 5646 5645 5645 5644 5641 5639 5637 5635 5633 5630 5628 5626 5624 5623 5621 5619 5615 5611 5609 5608 5609 5608 5606 5604 5602 5600 5598 5595 5592 5589 5586 5583
5657 5653 5650 5647 5644 5643 5641 5639 5637 5634 5631 5629 5627 5625 5623 5620 5618 5616 5613 5613 5611 5608 5606 5604 5601 5599 5597 5596 5596 5595 5593 5591 5588 5584 5581 5580 5578 5575
5647 5646 5643 5640 5637 5635 5632 5629 5626 5623 5620 5618 5616 5614 5612 5610 5607 5605 5603 5602 5600 5599 5597 5595 5592 5591 5589 5588 5583 5583 5582 5581 5578 5575 5572 5571 5570 5567
5639 5638 5635 5632 5629 5627 5624 5621 5617 5613 5609 5607 5605 5603 5601 5599 5597 5594 5592 5590 5589 5588 5587 5585 5582 5579 5578 5578 5576 5570 5570 5569 5568 5566 5563 5561 5560 5558
5631 5629 5627 5624 5621 5618 5615 5612 5608 5604 5600 5597 5595 5592 5591 5589 5586 5584 5582 5578 5577 5576 5575 5574 5571 5567 5565 5565 5565 5563 5558 5558 5557 5555 5553 5552 5550 5547
5622 5620 5618 5615 5612 5609 5605 5601 5597 5593 5590 5587 5585 5581 5579 5578 5576 5574 5571 5565 5564 5565 5564 5562 5559 5553 5554 5554 5554 5554 5552 5546 5544 5542 5542 5541 5540 5539
5614 5611 5608 5605 5601 5598 5594 5589 5587 5583 5580 5577 5574 5571 5569 5567 5565 5563 5561 5559 5556 5555 5553 5551 5548 5546 5545 5544 5543 5543 5542 5539 5534 5531 5528 5527 5527 5527
5603 5601 5598 5594 5590 5586 5582 5578 5575 5572 5569 5566 5564 5561 5558 5556 5554 5553 5551 5549 5546 5544 5542 5541 5539 5537 5535 5534 5533 5532 5531 5530 5528 5526 5522 5518 5515 5512